[[{"header":{"parameterUnit":"m.s-1","parameterCategory":2,"la1":30.2991,"la2":30.254,"lo1":-89.0895,"lo2":-89.0444,"dy":0.0017,"dx":0.0017,"nx":28,"ny":28,"refTime":"2025-06-16T03:00:00:Z","depth":"0","parameterNumber":2,"parameterNumberName":"U-component_of_CURRENTS"},"data":[0,0,0,0,0,0,0,0,0,0,0,0,0,0,0,0,0,0,0,0,0,0,0,0,0,0,0,0,0,0,0,0,0,0,0,0,0,0,0,0,0,0,0,0,0,0,0,0,0,0,0,0,0,0,0,0,0,0,0.2355,0.2356,0,0.2434,0.2435,0.2436,0.2441,0.244,0.2439,0.2438,0.2479,0.2481,0.2483,0,0,0,0,0,0,0,0,0,0,0,0,0,0.2224,0.2227,0.2355,0.2356,0.2357,0.2433,0.2435,0.2436,0.2441,0.244,0.2438,0.2437,0.2478,0.2481,0.2483,0,0,0,0,0,0,0,0,0,0,0,0,0,0.2292,0.2227,0.2355,0.2367,0.2368,0.2433,0.2435,0.2436,0.2441,0.244,0.2438,0.2437,0.2477,0.248,0.2483,0.2536,0,0,0.2493,0.2495,0,0,0,0,0,0,0,0,0.2288,0.2297,0.2364,0.2366,0.2368,0.2424,0.2403,0.2467,0.2442,0.2416,0.2438,0.2436,0.2457,0.2461,0.2484,0.2538,0.254,0.2493,0.2495,0.2497,0.2498,0,0,0,0,0,0,0,0.2283,0.2294,0.2389,0.2365,0.2367,0.2373,0.2381,0.2416,0.2446,0.2418,0.2418,0.2424,0.2457,0.2481,0.2484,0.254,0.2493,0.2496,0.2498,0.2499,0.2636,0.2638,0,0,0,0,0,0,0.2271,0.229,0.2386,0.2391,0.232,0.2376,0.2385,0.2409,0.2446,0.245,0.2425,0.2424,0.2476,0.2481,0.2486,0.2534,0.2497,0.25,0.2502,0.2634,0.2636,0.2638,0,0,0,0,0,0,0.2268,0.2279,0.2383,0.2338,0.2352,0.238,0.2407,0.2412,0.2432,0.2451,0.2454,0.2439,0.2475,0.2481,0.2516,0.2536,0.2501,0.2504,0.2632,0.2635,0.2637,0.2641,0,0,0,0,0,0,0.2264,0.2278,0.2298,0.2338,0.2354,0.2419,0.2409,0.2414,0.2436,0.2435,0.2465,0.2467,0.2474,0.2511,0.2519,0.254,0.2506,0.263,0.2633,0.2636,0.2639,0.2644,0.2648,0,0,0,0,0,0.226,0.2301,0.2299,0.231,0.2378,0.242,0.2429,0.2443,0.2438,0.2454,0.2471,0.2466,0.2537,0.2515,0.2524,0.2546,0.2628,0.2632,0.2636,0.2637,0.2643,0.2648,0,0,0,0,0,0,0.2256,0.2306,0.2304,0.2358,0.238,0.2419,0.2443,0.2449,0.2479,0.2478,0.2488,0.2493,0.2532,0.2546,0.2521,0.2598,0.2583,0.2589,0.2581,0.2586,0.2591,0.2612,0.2509,0,0,0,0,0,0.2263,0.2301,0.2337,0.2372,0.2389,0.2415,0.2435,0.2444,0.2472,0.2483,0.2499,0.2526,0.2561,0.2575,0.2606,0.265,0.2692,0.2672,0.2677,0.268,0.2706,0.2791,0.2805,0.2651,0.2651,0.2651,0,0,0.2267,0.2299,0.2318,0.2372,0.2394,0.2421,0.2424,0.2459,0.2478,0.2485,0.252,0.2543,0.2577,0.2621,0.264,0.263,0.2745,0.2685,0.2687,0.2712,0.2796,0.2811,0.2825,0.2653,0.2653,0.2653,0,0,0.228,0.2326,0.2351,0.2376,0.241,0.2435,0.2442,0.2482,0.2499,0.2531,0.2548,0.2589,0.2624,0.2665,0.2686,0.2742,0.2766,0.2744,0.2782,0.2863,0.2876,0.2888,0.2949,0.2967,0.2744,0.2744,0.2744,0,0.2279,0.232,0.2362,0.2386,0.2407,0.2438,0.2459,0.2494,0.2533,0.2562,0.2537,0.2635,0.2651,0.2734,0.2748,0.2752,0.2796,0.275,0.2868,0.2881,0.2894,0.2953,0.2973,0.2744,0.2744,0.2744,0.2744,0,0.2302,0.2333,0.2355,0.2395,0.2424,0.2456,0.2497,0.2534,0.2549,0.258,0.2654,0.2688,0.2749,0.2758,0.2765,0.2871,0.2872,0.2862,0.285,0.291,0.2968,0.2989,0.2745,0.2745,0.2745,0.2745,0,0,0.2309,0.236,0.2366,0.2379,0.2434,0.2463,0.2512,0.2576,0.2621,0.2659,0.2718,0.2786,0.2816,0.2847,0.2873,0.2941,0.3051,0.2939,0.2943,0.2992,0.3227,0.3185,0.3203,0.3059,0.3063,0.3066,0.3227,0,0.2311,0.2347,0.2377,0.2412,0.2439,0.2488,0.2532,0.2594,0.2642,0.271,0.2778,0.2837,0.2847,0.2873,0.2953,0.3032,0.3108,0.3009,0.3171,0.3176,0.3125,0.3227,0.3052,0.3178,0.3247,0.3251,0.3253,0,0.2322,0.2349,0.2377,0.2429,0.2447,0.247,0.2561,0.2603,0.2713,0.2753,0.2842,0.2888,0.3013,0.2986,0.3187,0.3123,0.3188,0.3239,0.3246,0.3227,0.3173,0.3135,0.3213,0.3102,0.3284,0.3282,0.328,0,0.2309,0.2353,0.2374,0.2392,0.2455,0.2481,0.2518,0.2616,0.2665,0.2783,0.2829,0.2976,0.3044,0.3168,0.3284,0.3244,0.3488,0.3438,0.3468,0.3464,0.3361,0.3342,0.3348,0.3586,0.3586,0.3585,0.3585,0,0.2312,0.2332,0.2365,0.2382,0.2416,0.2462,0.2514,0.2582,0.2676,0.2742,0.2847,0.2933,0.3095,0.3239,0.333,0.3482,0.3536,0.3515,0.3523,0.3355,0.3334,0.3269,0.3226,0.3591,0.359,0.3589,0.3588,0,0.2295,0.2319,0.2345,0.2396,0.2406,0.2428,0.2483,0.253,0.2626,0.2714,0.2749,0.2935,0.3122,0.3281,0.349,0.3535,0.3576,0.3706,0.3491,0.3471,0.3354,0.3318,0.3302,0.3219,0.3761,0.3761,0.3762,0,0.2281,0.2294,0.2336,0.234,0.2356,0.2385,0.2407,0.2493,0.2537,0.2713,0.2755,0.2959,0.3085,0.3387,0.3516,0.3688,0.3591,0.3614,0.3505,0.3362,0.3329,0.3212,0.3133,0.3367,0.3363,0.3361,0.3359,0,0.2258,0.2277,0.2303,0.2313,0.2321,0.2334,0.2365,0.2393,0.2503,0.2583,0.272,0.2832,0.3106,0.3219,0.3446,0.3525,0.3411,0.3566,0.348,0.3092,0.2906,0.282,0.3236,0.3337,0.3339,0.334,0.3342,0.3343,0.2229,0.2244,0.2274,0.228,0.2282,0.2276,0.2261,0.231,0.2366,0.2457,0.2623,0.2723,0.2915,0.3204,0.3274,0.3254,0.3284,0.3165,0.3159,0.3074,0.291,0.3277,0.3341,0.3343,0.3345,0.3347,0.3348,0,0.2186,0.2217,0.223,0.2226,0.2195,0.222,0.2226,0.2203,0.2223,0.2323,0.2418,0.2548,0.2663,0.2807,0.2907,0.2849,0.2733,0.279,0.2563,0.2527,0.2908,0.2803,0.2675,0.2675,0.2675,0.2675,0.2676,0.2676,0.2167,0.2179,0.22,0.214,0.2121,0.2054,0.2039,0.2026,0.2055,0.2081,0.2108,0.222,0.2424,0.2574,0.2547,0.2499,0.233,0.2243,0.229,0.2517,0.2549,0.258,0.2469,0.2274,0.2273,0.1764,0.176,0.1757]},{"header":{"parameterUnit":"m.s-1","parameterCategory":2,"la1":30.2991,"la2":30.254,"lo1":-89.0895,"lo2":-89.0444,"dy":0.0017,"dx":0.0017,"nx":28,"ny":28,"refTime":"2025-06-16T03:00:00:Z","depth":"0","parameterNumber":3,"parameterNumberName":"V-component_of_CURRENTS"},"data":[0,0,0,0,0,0,0,0,0,0,0,0,0,0,0,0,0,0,0,0,0,0,0,0,0,0,0,0,0,0,0,0,0,0,0,0,0,0,0,0,0,0,0,0,0,0,0,0,0,0,0,0,0,0,0,0,0,0,0.0712,0.0711,0,0.0646,0.0645,0.0645,0.0591,0.059,0.059,0.0589,0.0467,0.0465,0.0462,0,0,0,0,0,0,0,0,0,0,0,0,0,0.078,0.0779,0.0712,0.0711,0.071,0.0646,0.0645,0.0645,0.0591,0.059,0.0589,0.0588,0.0468,0.0465,0.0462,0,0,0,0,0,0,0,0,0,0,0,0,0,0.0739,0.0779,0.0712,0.0673,0.0669,0.0646,0.0645,0.0644,0.0592,0.059,0.0589,0.0588,0.0469,0.0465,0.0461,0.0463,0,0,0.045,0.0449,0,0,0,0,0,0,0,0,0.0741,0.0737,0.068,0.0676,0.0671,0.0623,0.0624,0.058,0.0592,0.0624,0.0589,0.0587,0.0513,0.0506,0.0501,0.0458,0.0452,0.045,0.0448,0.0446,0.0445,0,0,0,0,0,0,0,0.0744,0.0739,0.0689,0.0679,0.0674,0.0655,0.0648,0.0616,0.0578,0.0621,0.0617,0.0605,0.051,0.0505,0.0497,0.0451,0.045,0.0447,0.0444,0.0443,0.0371,0.0371,0,0,0,0,0,0,0.0748,0.0742,0.0691,0.0687,0.07,0.0654,0.0647,0.0642,0.0579,0.0568,0.0606,0.0602,0.0512,0.0502,0.0493,0.0495,0.0446,0.0442,0.044,0.037,0.0371,0.0371,0,0,0,0,0,0,0.075,0.0745,0.0694,0.071,0.0702,0.0654,0.0649,0.0641,0.0636,0.0567,0.0555,0.0608,0.051,0.0498,0.0463,0.0489,0.0441,0.0437,0.037,0.0371,0.0371,0.0497,0,0,0,0,0,0,0.0752,0.0746,0.0752,0.0711,0.0701,0.0689,0.065,0.0641,0.0629,0.0624,0.0566,0.0553,0.0508,0.0469,0.046,0.0483,0.0435,0.037,0.037,0.0371,0.0492,0.0501,0.0509,0,0,0,0,0,0.0755,0.0769,0.0754,0.0747,0.0709,0.069,0.0684,0.0647,0.0631,0.0638,0.059,0.0555,0.0466,0.0467,0.0455,0.0479,0.0369,0.037,0.0371,0.0488,0.0499,0.0509,0,0,0,0,0,0,0.0792,0.0764,0.0745,0.0747,0.0723,0.0679,0.0681,0.0658,0.063,0.0622,0.0561,0.0545,0.0523,0.048,0.0483,0.0456,0.0411,0.041,0.0504,0.0514,0.0523,0.0544,0.0431,0,0,0,0,0,0.0806,0.0814,0.0775,0.0776,0.0768,0.0729,0.0718,0.0695,0.0659,0.0646,0.0605,0.0556,0.0519,0.05,0.0457,0.0449,0.0412,0.0453,0.0462,0.047,0.0478,0.0437,0.0444,0.0373,0.0373,0.0373,0,0,0.0816,0.0803,0.0805,0.0785,0.0764,0.076,0.0721,0.0711,0.0711,0.0636,0.0629,0.0584,0.052,0.0507,0.0494,0.0475,0.0473,0.0471,0.0478,0.0481,0.0439,0.0446,0.0452,0.0374,0.0374,0.0374,0,0,0.0834,0.0834,0.084,0.0832,0.0807,0.0791,0.0792,0.0759,0.075,0.0733,0.0681,0.0657,0.0597,0.0568,0.0542,0.0572,0.0516,0.0554,0.0623,0.0585,0.0591,0.0595,0.0578,0.058,0.0563,0.0564,0.0564,0,0.0843,0.085,0.0839,0.0841,0.0842,0.0809,0.0817,0.0808,0.0768,0.0773,0.0741,0.0677,0.0629,0.0619,0.0628,0.0596,0.0564,0.0596,0.0599,0.0602,0.0605,0.0586,0.0586,0.057,0.0569,0.0569,0.0568,0,0.0857,0.0869,0.0876,0.0874,0.088,0.0885,0.0871,0.0882,0.0868,0.0851,0.0841,0.078,0.0745,0.0728,0.0686,0.069,0.066,0.0614,0.0582,0.062,0.0597,0.0596,0.0579,0.0576,0.0575,0.0573,0,0,0.0854,0.088,0.0881,0.0901,0.0904,0.0912,0.0936,0.0949,0.0981,0.094,0.0965,0.0907,0.0882,0.085,0.0803,0.0774,0.0775,0.0712,0.0707,0.0712,0.0704,0.0705,0.0703,0.0727,0.0727,0.0727,0.0689,0,0.0862,0.0888,0.0901,0.0941,0.0961,0.0972,0.101,0.1024,0.1029,0.1049,0.1,0.0992,0.0926,0.0921,0.0883,0.0805,0.0773,0.0791,0.065,0.0647,0.0656,0.0702,0.0657,0.062,0.0687,0.0687,0.0686,0,0.0872,0.0893,0.093,0.1003,0.1015,0.1038,0.1115,0.1141,0.1167,0.1177,0.1164,0.1118,0.1091,0.1013,0.0912,0.0925,0.0825,0.0753,0.0748,0.0703,0.0645,0.0584,0.0614,0.0454,0.0683,0.0684,0.0684,0,0.0887,0.0927,0.0967,0.0982,0.1044,0.1082,0.1122,0.1174,0.1225,0.1253,0.1284,0.1234,0.1218,0.1094,0.096,0.0931,0.0836,0.0773,0.0677,0.0676,0.0587,0.0579,0.0458,0.0677,0.0677,0.0678,0.0678,0,0.0906,0.094,0.0978,0.1001,0.1075,0.1112,0.1199,0.1247,0.1313,0.138,0.1344,0.1379,0.1231,0.1158,0.1007,0.0867,0.0872,0.0705,0.0669,0.0632,0.0628,0.0442,0.0375,0.0676,0.0676,0.0677,0.0677,0,0.092,0.0939,0.0995,0.1059,0.1085,0.1139,0.1246,0.1314,0.1381,0.1464,0.1476,0.1489,0.1417,0.1264,0.1087,0.0947,0.0711,0.0726,0.0712,0.0675,0.0442,0.0386,0.0267,0.0218,0.0625,0.0625,0.0625,0,0.0926,0.0954,0.103,0.1066,0.1093,0.1172,0.124,0.1334,0.1411,0.153,0.1573,0.1554,0.155,0.1335,0.1091,0.086,0.0704,0.0654,0.0584,0.0443,0.0352,0.0322,0.0287,0.0516,0.0515,0.0514,0.0513,0,0.0948,0.0977,0.1023,0.1095,0.1158,0.1242,0.1339,0.1412,0.153,0.1617,0.1718,0.1729,0.1557,0.1344,0.1058,0.087,0.0563,0.0631,0.0467,0.0257,0.0231,0.0162,0.0544,0.0506,0.0507,0.0507,0.0507,0.0508,0.0963,0.1003,0.1068,0.1136,0.121,0.1308,0.1385,0.1495,0.1629,0.1774,0.1797,0.1827,0.1527,0.1153,0.0925,0.046,0.0506,0.0281,0.0227,0.0212,0.0157,0.0552,0.0486,0.0486,0.0487,0.0487,0.0488,0,0.0977,0.1034,0.1106,0.1196,0.1274,0.1315,0.1455,0.1543,0.169,0.1802,0.1893,0.1724,0.135,0.0959,0.0382,0.0092,-0.0008,-0.0078,-0.0173,-0.0187,0.0125,0.011,-0.0019,-0.0019,-0.0018,-0.0018,-0.0018,-0.0018,0.0989,0.1059,0.1105,0.1231,0.1297,0.141,0.1488,0.1625,0.1726,0.1839,0.1831,0.1837,0.1498,0.0503,-0.0163,-0.0305,-0.0486,-0.0525,-0.0574,-0.0427,-0.0399,-0.0373,-0.0406,-0.064,-0.0641,-0.0885,-0.0887,-0.089]}],[{"header":{"parameterUnit":"m.s-1","parameterCategory":2,"la1":30.2991,"la2":30.254,"lo1":-89.0895,"lo2":-89.0444,"dy":0.0017,"dx":0.0017,"nx":28,"ny":28,"refTime":"2025-06-16T03:00:00:Z","depth":"2","parameterNumber":2,"parameterNumberName":"U-component_of_CURRENTS"},"data":[0,0,0,0,0,0,0,0,0,0,0,0,0,0,0,0,0,0,0,0,0,0,0,0,0,0,0,0,0,0,0,0,0,0,0,0,0,0,0,0,0,0,0,0,0,0,0,0,0,0,0,0,0,0,0,0,0,0,0.2124,0.2127,0,0.2239,0.2239,0.2239,0.2246,0.2246,0.2246,0.2246,0.2221,0.222,0.222,0,0,0,0,0,0,0,0,0,0,0,0,0,0.196,0.1961,0.2124,0.2127,0.213,0.2239,0.2239,0.2239,0.2246,0.2246,0.2246,0.2246,0.2221,0.222,0.222,0,0,0,0,0,0,0,0,0,0,0,0,0,0.2035,0.1962,0.2124,0.2156,0.2162,0.2239,0.2239,0.224,0.2246,0.2246,0.2246,0.2246,0.2221,0.222,0.2219,0.2214,0,0,0.2216,0.2216,0,0,0,0,0,0,0,0,0.2031,0.2039,0.2149,0.2155,0.2161,0.2241,0.2173,0.2229,0.2246,0.2199,0.2246,0.2246,0.2224,0.2222,0.2226,0.2213,0.2212,0.2216,0.2216,0.2215,0.2215,0,0,0,0,0,0,0,0.2025,0.2035,0.2155,0.2152,0.2159,0.2184,0.2192,0.2183,0.2197,0.2203,0.2208,0.2243,0.2224,0.2227,0.2226,0.2212,0.2216,0.2216,0.2215,0.2215,0.2248,0.225,0,0,0,0,0,0,0.2037,0.203,0.2152,0.216,0.211,0.2187,0.2196,0.2203,0.22,0.2205,0.2243,0.2243,0.2229,0.2227,0.2225,0.2274,0.2215,0.2214,0.2214,0.2247,0.2249,0.225,0,0,0,0,0,0,0.2033,0.2046,0.2148,0.211,0.2127,0.2191,0.2199,0.2206,0.2204,0.2234,0.2233,0.2235,0.2229,0.2226,0.2195,0.2271,0.2214,0.2213,0.2245,0.2247,0.2249,0.2337,0,0,0,0,0,0,0.2027,0.2042,0.2048,0.211,0.213,0.2173,0.2201,0.2209,0.2234,0.2234,0.2227,0.2226,0.2229,0.2196,0.2194,0.2269,0.2212,0.2243,0.2246,0.2249,0.2333,0.2342,0.2351,0,0,0,0,0,0.202,0.2057,0.2047,0.2063,0.2136,0.2174,0.2182,0.222,0.2233,0.2218,0.2213,0.2225,0.2215,0.2194,0.2192,0.2269,0.2242,0.2245,0.2248,0.2328,0.234,0.235,0,0,0,0,0,0,0.2012,0.2064,0.2054,0.2107,0.212,0.2179,0.2209,0.2214,0.2201,0.2212,0.2207,0.2204,0.223,0.2212,0.219,0.2287,0.2246,0.2249,0.2308,0.2319,0.2328,0.2296,0.2212,0,0,0,0,0,0.2006,0.2019,0.2066,0.2093,0.2115,0.2146,0.2171,0.2188,0.2202,0.2198,0.2215,0.223,0.2245,0.2243,0.2259,0.2272,0.2268,0.2331,0.234,0.2348,0.232,0.2374,0.2386,0.2261,0.2261,0.2261,0,0,0.2018,0.2043,0.2055,0.2088,0.2114,0.214,0.2156,0.2199,0.2207,0.2196,0.2226,0.2258,0.2254,0.2297,0.231,0.2285,0.2386,0.2352,0.2359,0.2326,0.2379,0.2391,0.2402,0.2263,0.2263,0.2263,0,0,0.2023,0.206,0.2056,0.2077,0.2117,0.2147,0.2151,0.2212,0.2221,0.2233,0.2263,0.2298,0.2323,0.2348,0.2353,0.2402,0.2438,0.2459,0.2472,0.2527,0.2538,0.2546,0.258,0.2591,0.2458,0.2458,0.2458,0,0.2021,0.2036,0.2061,0.2069,0.2112,0.2144,0.2164,0.2177,0.2218,0.2241,0.2246,0.2341,0.2339,0.2387,0.2423,0.2424,0.2464,0.2436,0.254,0.2548,0.2556,0.2588,0.2599,0.2463,0.2462,0.2462,0.2461,0,0.2026,0.2039,0.206,0.2068,0.2099,0.2141,0.2178,0.2209,0.2249,0.2282,0.2351,0.2367,0.2422,0.2464,0.2448,0.2539,0.2554,0.2554,0.2513,0.2574,0.2604,0.2614,0.2469,0.2468,0.2466,0.2465,0,0,0.2017,0.2048,0.2058,0.2058,0.2119,0.2148,0.2179,0.2225,0.2264,0.232,0.2365,0.2427,0.2485,0.2491,0.2531,0.2568,0.2665,0.2595,0.2596,0.2628,0.2802,0.2516,0.25,0.2718,0.272,0.2721,0.2809,0,0.2005,0.2019,0.205,0.208,0.2099,0.2161,0.2189,0.2236,0.2289,0.2346,0.2385,0.2446,0.2481,0.2533,0.2585,0.2633,0.2694,0.264,0.2734,0.2735,0.2475,0.2501,0.2397,0.2439,0.2819,0.282,0.2822,0,0.1999,0.2008,0.2036,0.2082,0.2105,0.2137,0.223,0.2264,0.2337,0.237,0.245,0.2496,0.2557,0.2572,0.2695,0.2679,0.2751,0.2783,0.2788,0.2482,0.2465,0.2435,0.2443,0.2838,0.2837,0.2835,0.2834,0,0.198,0.2009,0.2034,0.2059,0.2116,0.215,0.2205,0.2289,0.2323,0.24,0.2446,0.2529,0.2563,0.2665,0.2715,0.2748,0.2818,0.2868,0.2685,0.2668,0.2561,0.2526,0.2971,0.297,0.297,0.297,0.297,0,0.1974,0.1994,0.2027,0.2052,0.2085,0.2149,0.2216,0.2268,0.2345,0.2386,0.2481,0.2509,0.2597,0.2642,0.2721,0.2679,0.2834,0.266,0.2656,0.2585,0.2553,0.2874,0.2862,0.2973,0.2973,0.2972,0.2971,0,0.1941,0.1977,0.1992,0.2051,0.2071,0.2106,0.2197,0.224,0.2339,0.2387,0.2409,0.2493,0.2507,0.2561,0.2656,0.2634,0.2651,0.262,0.2488,0.2458,0.2487,0.2479,0.244,0.2431,0.2422,0.2416,0.241,0,0.1926,0.192,0.1972,0.1989,0.2018,0.2077,0.2111,0.2206,0.2244,0.2368,0.237,0.2399,0.2353,0.2332,0.229,0.2286,0.2446,0.2178,0.2165,0.2424,0.2427,0.2432,0.2434,0.2124,0.2117,0.2111,0.2106,0,0.1854,0.1876,0.1894,0.1925,0.1957,0.2005,0.2067,0.2067,0.2176,0.219,0.2209,0.2182,0.213,0.1988,0.1898,0.1913,0.2141,0.2035,0.2403,0.2193,0.211,0.2116,0.2135,0.205,0.2055,0.206,0.2063,0.2065,0.1792,0.1783,0.1806,0.1843,0.1886,0.1925,0.193,0.1955,0.1945,0.1923,0.1967,0.1887,0.1836,0.1585,0.1552,0.1565,0.1689,0.1713,0.1743,0.1777,0.1642,0.1539,0.1351,0.1353,0.1354,0.1355,0.1356,0,0.17,0.1721,0.1724,0.1752,0.1764,0.1863,0.1891,0.183,0.1748,0.1718,0.1653,0.1423,0.13,0.1335,0.1264,0.1201,0.1324,0.1186,0.1404,0.1455,0.1501,0.1363,0.0994,0.0993,0.0992,0.0992,0,0,0.1649,0.1629,0.1636,0.1622,0.1678,0.1697,0.1719,0.1591,0.155,0.1328,0.1274,0.1231,0.1289,0.1118,0.1071,0.1061,0.1275,0.103,0.1319,0.1629,0.1676,0.1788,0.1625,0,0,0,0,0]},{"header":{"parameterUnit":"m.s-1","parameterCategory":2,"la1":30.2991,"la2":30.254,"lo1":-89.0895,"lo2":-89.0444,"dy":0.0017,"dx":0.0017,"nx":28,"ny":28,"refTime":"2025-06-16T03:00:00:Z","depth":"2","parameterNumber":3,"parameterNumberName":"V-component_of_CURRENTS"},"data":[0,0,0,0,0,0,0,0,0,0,0,0,0,0,0,0,0,0,0,0,0,0,0,0,0,0,0,0,0,0,0,0,0,0,0,0,0,0,0,0,0,0,0,0,0,0,0,0,0,0,0,0,0,0,0,0,0,0,0.0269,0.0269,0,0.0242,0.0241,0.024,0.0196,0.0196,0.0196,0.0196,-0.003,-0.0036,-0.0042,0,0,0,0,0,0,0,0,0,0,0,0,0,0.0307,0.0305,0.0269,0.0269,0.027,0.0242,0.0241,0.0239,0.0196,0.0196,0.0196,0.0196,-0.0028,-0.0035,-0.0043,0,0,0,0,0,0,0,0,0,0,0,0,0,0.0277,0.0305,0.0269,0.0252,0.0251,0.0242,0.0241,0.0239,0.0196,0.0196,0.0196,0.0196,-0.0026,-0.0035,-0.0044,-0.0104,0,0,-0.0072,-0.0076,0,0,0,0,0,0,0,0,0.0278,0.0274,0.0254,0.0253,0.0252,0.0231,0.0172,0.0118,0.0196,0.0206,0.0196,0.0196,0.0045,0.003,0.0013,-0.0114,-0.0124,-0.0073,-0.0078,-0.0082,-0.0085,0,0,0,0,0,0,0,0.028,0.0275,0.0248,0.0255,0.0254,0.0255,0.025,0.0162,0.0113,0.0205,0.0204,0.0217,0.0042,0.0022,0.0007,-0.0127,-0.0072,-0.0081,-0.0086,-0.009,-0.0289,-0.0289,0,0,0,0,0,0,0.0302,0.0277,0.0249,0.0248,0.0277,0.0255,0.0248,0.0229,0.0119,0.0107,0.0217,0.0216,0.0038,0.0018,-0.0001,-0.0004,-0.0082,-0.0091,-0.0096,-0.0289,-0.0289,-0.0289,0,0,0,0,0,0,0.0302,0.0298,0.025,0.0272,0.0267,0.0255,0.0234,0.0229,0.0207,0.0132,0.0114,0.0202,0.0037,0.0012,-0.0069,-0.0016,-0.0095,-0.0103,-0.0289,-0.0289,-0.0289,-0.0058,0,0,0,0,0,0,0.0303,0.0298,0.0288,0.0272,0.0267,0.0223,0.0235,0.0229,0.022,0.0217,0.0112,0.0092,0.0035,-0.0054,-0.0078,-0.003,-0.011,-0.029,-0.0289,-0.0289,-0.0066,-0.005,-0.0036,0,0,0,0,0,0.0304,0.0308,0.0286,0.0284,0.0254,0.0223,0.0217,0.0205,0.0219,0.0189,0.0148,0.0095,-0.0068,-0.0062,-0.009,-0.0043,-0.029,-0.0289,-0.0289,-0.0073,-0.0053,-0.0037,0,0,0,0,0,0,0.034,0.0304,0.028,0.0276,0.0238,0.0219,0.0225,0.0205,0.0151,0.0161,0.0084,0.0059,0.002,-0.0069,-0.006,-0.0105,-0.0184,-0.0189,-0.001,0.0007,0.0022,-0.0016,-0.0118,0,0,0,0,0,0.0338,0.031,0.0278,0.0268,0.0265,0.0239,0.0231,0.0212,0.0176,0.0155,0.0119,0.0059,-0.0001,-0.0042,-0.0108,-0.0155,-0.0242,-0.0144,-0.0129,-0.0115,-0.0169,-0.0237,-0.0232,-0.0287,-0.0287,-0.0287,0,0,0.0358,0.033,0.032,0.0271,0.0259,0.0249,0.0231,0.0223,0.02,0.0134,0.0128,0.0106,-0.0004,-0.0023,-0.0051,-0.0091,-0.0133,-0.0115,-0.0101,-0.0164,-0.0236,-0.023,-0.0225,-0.0287,-0.0287,-0.0287,0,0,0.037,0.0354,0.0327,0.0306,0.0278,0.0265,0.0261,0.0254,0.0231,0.0206,0.0182,0.0173,0.009,0.0047,-0.0,0.0031,-0.0047,0.0039,0.0081,0.0021,0.0025,0.0027,-0.0007,-0.001,0.0044,0.0045,0.0045,0,0.0381,0.0357,0.0318,0.0299,0.0307,0.0276,0.0272,0.0235,0.0207,0.0215,0.0218,0.0179,0.0112,0.0066,0.0103,0.0067,0.0028,0.0044,0.0045,0.0044,0.0043,0.0005,-0.0,0.0056,0.0054,0.0053,0.0052,0,0.0385,0.0366,0.037,0.0327,0.0313,0.0318,0.0279,0.0282,0.0298,0.0295,0.029,0.0231,0.0208,0.0217,0.0165,0.0146,0.0127,0.0088,0.0015,0.0063,0.0021,0.0011,0.0072,0.0068,0.0064,0.0062,0,0,0.0397,0.037,0.0371,0.0363,0.0342,0.0335,0.032,0.0307,0.0338,0.0326,0.0349,0.0299,0.033,0.0269,0.0241,0.0186,0.0194,0.015,0.0142,0.0142,0.0092,0.0018,-0.0001,0.0185,0.0182,0.0181,0.0094,0,0.0406,0.0383,0.0375,0.0382,0.0377,0.0376,0.0374,0.0363,0.0377,0.0403,0.0341,0.0356,0.0322,0.0357,0.0298,0.0198,0.0164,0.0221,0.0014,0.0007,-0.0043,-0.0018,0.0049,-0.0031,0.0083,0.0081,0.0079,0,0.0407,0.0391,0.0394,0.041,0.042,0.0436,0.0481,0.0483,0.0488,0.049,0.0496,0.0475,0.0397,0.0369,0.0202,0.0254,0.0183,0.0105,0.01,-0.0084,-0.009,-0.0082,-0.0056,0.006,0.0062,0.0063,0.0064,0,0.042,0.0412,0.0421,0.0428,0.044,0.0471,0.0514,0.0544,0.0557,0.0569,0.0601,0.0514,0.0464,0.0344,0.0182,0.0216,-0.002,0.0006,-0.0128,-0.0132,-0.019,-0.0197,-0.011,-0.011,-0.0109,-0.0109,-0.0109,0,0.0428,0.0439,0.0439,0.0457,0.0504,0.0521,0.0605,0.0626,0.0657,0.0687,0.0674,0.0631,0.0454,0.0315,0.0188,-0.0035,-0.0017,-0.0152,-0.0179,-0.0101,-0.01,-0.0139,-0.0142,-0.0112,-0.0112,-0.0111,-0.011,0,0.0417,0.0426,0.0441,0.048,0.0505,0.0555,0.0651,0.0706,0.0749,0.0773,0.0776,0.0682,0.0494,0.0308,0.0067,-0.0041,-0.0233,-0.0303,-0.0198,-0.0214,-0.0284,-0.0273,-0.0433,-0.0437,-0.044,-0.0443,-0.0445,0,0.0417,0.0407,0.0455,0.0493,0.0522,0.0602,0.0662,0.0726,0.0777,0.0786,0.0781,0.0634,0.0503,0.013,-0.0088,-0.033,-0.0351,-0.0421,-0.0373,-0.0317,-0.0326,-0.0311,-0.0296,-0.0314,-0.0315,-0.0316,-0.0316,0,0.0392,0.0404,0.0412,0.0486,0.0556,0.0647,0.0748,0.0766,0.0835,0.0834,0.0781,0.0686,0.0382,0.0114,-0.0212,-0.0349,-0.038,-0.0448,-0.044,-0.026,-0.0217,-0.0222,-0.0209,-0.0323,-0.0323,-0.0322,-0.0322,-0.0321,0.0374,0.0368,0.0392,0.0462,0.0573,0.07,0.0777,0.0829,0.087,0.0876,0.0764,0.0651,0.0353,-0.0056,-0.028,-0.0448,-0.0457,-0.0502,-0.0494,-0.0485,-0.0474,-0.0443,-0.0585,-0.0586,-0.0587,-0.0587,-0.0588,0,0.0342,0.0344,0.0383,0.0479,0.0595,0.0706,0.0839,0.0878,0.0907,0.0874,0.0816,0.0522,0.0252,-0.0019,-0.0253,-0.0455,-0.0388,-0.0518,-0.0381,-0.0375,-0.037,-0.0346,-0.0427,-0.0426,-0.0426,-0.0426,0,0,0.0314,0.0314,0.0318,0.0466,0.0595,0.0789,0.0891,0.0919,0.0943,0.0847,0.0796,0.0637,0.0303,0.0129,-0.0143,-0.0251,-0.0242,-0.0262,-0.0375,-0.0174,-0.0164,-0.0357,-0.0317,0,0,0,0,0]}],[{"header":{"parameterUnit":"m.s-1","parameterCategory":2,"la1":30.2991,"la2":30.254,"lo1":-89.0895,"lo2":-89.0444,"dy":0.0017,"dx":0.0017,"nx":28,"ny":28,"refTime":"2025-06-16T03:00:00:Z","depth":"4","parameterNumber":2,"parameterNumberName":"U-component_of_CURRENTS"},"data":[0,0,0,0,0,0,0,0,0,0,0,0,0,0,0,0,0,0,0,0,0,0,0,0,0,0,0,0,0,0,0,0,0,0,0,0,0,0,0,0,0,0,0,0,0,0,0,0,0,0,0,0,0,0,0,0,0,0,0.0083,0.0084,0,0.0151,0.0151,0.0152,0.018,0.018,0.018,0.018,0.0192,0.0192,0.0193,0,0,0,0,0,0,0,0,0,0,0,0,0,0.004,0.004,0.0083,0.0084,0.0085,0.015,0.0151,0.0152,0.018,0.018,0.018,0.018,0.0192,0.0192,0.0193,0,0,0,0,0,0,0,0,0,0,0,0,0,0.0078,0.004,0.0083,0.0107,0.011,0.015,0.0151,0.0152,0.018,0.018,0.018,0.018,0.0191,0.0192,0.0193,0.0201,0,0,0.0195,0.0195,0,0,0,0,0,0,0,0,0.0076,0.0079,0.0102,0.0105,0.0108,0.0157,0.0141,0.0166,0.018,0.0153,0.018,0.0179,0.0175,0.0177,0.0191,0.0201,0.0202,0.0195,0.0195,0.0196,0.0196,0,0,0,0,0,0,0,0.0073,0.0077,0.011,0.0103,0.0107,0.0135,0.014,0.0146,0.0163,0.0156,0.0158,0.0165,0.0176,0.019,0.0191,0.0202,0.0195,0.0195,0.0196,0.0196,0.0207,0.0207,0,0,0,0,0,0,0.0062,0.0074,0.0108,0.0112,0.0091,0.0136,0.0141,0.0141,0.0165,0.0168,0.0166,0.0167,0.0189,0.019,0.0192,0.0191,0.0196,0.0196,0.0197,0.0207,0.0207,0.0207,0,0,0,0,0,0,0.0061,0.0064,0.0105,0.0095,0.0102,0.0136,0.0137,0.0143,0.0162,0.0173,0.0175,0.0179,0.0189,0.0191,0.0189,0.0192,0.0196,0.0197,0.0207,0.0207,0.0207,0.0198,0,0,0,0,0,0,0.0059,0.0063,0.0063,0.0094,0.0102,0.0133,0.0137,0.0144,0.0167,0.0169,0.0185,0.0186,0.0189,0.0188,0.019,0.0193,0.0198,0.0207,0.0207,0.0207,0.0198,0.0197,0.0196,0,0,0,0,0,0.0057,0.0058,0.0062,0.0067,0.01,0.0133,0.0141,0.0164,0.0168,0.018,0.0178,0.0186,0.0188,0.0188,0.019,0.0194,0.0208,0.0207,0.0207,0.0198,0.0197,0.0196,0,0,0,0,0,0,0.0044,0.0062,0.0067,0.0074,0.0103,0.0138,0.0152,0.0168,0.018,0.0173,0.0183,0.0183,0.0183,0.0189,0.0189,0.0196,0.02,0.02,0.0193,0.0192,0.0191,0.0205,0.0198,0,0,0,0,0,0.0039,0.0041,0.0069,0.0077,0.0089,0.0121,0.0138,0.0151,0.0166,0.0173,0.0186,0.0188,0.0185,0.0188,0.0189,0.0195,0.021,0.0199,0.0198,0.0198,0.021,0.0217,0.0218,0.0206,0.0206,0.0206,0,0,0.0038,0.0047,0.005,0.0074,0.0096,0.0119,0.0131,0.0153,0.0172,0.017,0.0193,0.0186,0.0184,0.0185,0.0186,0.0191,0.0211,0.0197,0.0197,0.021,0.0217,0.0218,0.0219,0.0206,0.0206,0.0206,0,0,0.0037,0.0043,0.0045,0.007,0.0097,0.0118,0.0125,0.016,0.0174,0.0191,0.0184,0.0179,0.0193,0.0188,0.0186,0.0184,0.0202,0.0184,0.0196,0.0202,0.0203,0.0204,0.0233,0.0237,0.0188,0.0188,0.0188,0,0.0031,0.0043,0.0055,0.0072,0.0096,0.0117,0.0139,0.0157,0.0188,0.02,0.0196,0.0204,0.0197,0.0193,0.0187,0.0183,0.0197,0.0198,0.0201,0.0203,0.0204,0.0234,0.0238,0.0187,0.0187,0.0187,0.0187,0,0.004,0.0054,0.0062,0.0085,0.0111,0.0134,0.0161,0.0182,0.0198,0.0217,0.0224,0.021,0.0222,0.0208,0.0195,0.0199,0.021,0.0195,0.0205,0.0205,0.0236,0.0241,0.0186,0.0187,0.0187,0.0187,0,0,0.0017,0.0057,0.0063,0.0081,0.0122,0.0144,0.0172,0.0208,0.0233,0.0242,0.0274,0.0246,0.0247,0.0244,0.0224,0.0219,0.0232,0.0212,0.0213,0.0244,0.0265,0.027,0.0275,0.0215,0.0216,0.0216,0.0286,0,0.0023,0.0052,0.0076,0.0115,0.0135,0.0171,0.0201,0.0231,0.0258,0.0293,0.0276,0.0292,0.0258,0.0259,0.0248,0.0236,0.0244,0.0217,0.0259,0.0261,0.0266,0.028,0.0218,0.029,0.0291,0.0292,0.0292,0,0.0027,0.0046,0.008,0.0133,0.0147,0.0177,0.0235,0.0265,0.0309,0.0327,0.034,0.0342,0.0338,0.0307,0.0304,0.0289,0.0285,0.0272,0.0274,0.0287,0.0274,0.0287,0.0301,0.0301,0.03,0.0299,0.0299,0,0.0004,0.0055,0.0081,0.0102,0.0158,0.0187,0.0226,0.0277,0.0309,0.0357,0.0384,0.0386,0.0398,0.038,0.0355,0.0337,0.0355,0.0332,0.0338,0.0339,0.0319,0.0316,0.0342,0.0342,0.0341,0.0341,0.0341,0,0.0002,0.0026,0.0077,0.0091,0.0134,0.0182,0.0236,0.0274,0.0335,0.0372,0.0401,0.0417,0.0414,0.0422,0.0389,0.0385,0.039,0.0355,0.0357,0.0314,0.0311,0.0323,0.032,0.0344,0.0343,0.0343,0.0342,0,-0.0024,0.0007,0.0036,0.0096,0.0121,0.0154,0.0243,0.028,0.0342,0.0395,0.0412,0.046,0.0473,0.0472,0.046,0.0442,0.0424,0.042,0.0402,0.0399,0.0403,0.0398,0.0455,0.0456,0.0456,0.0457,0.0457,0,-0.0032,-0.0026,0.0029,0.0052,0.0085,0.0147,0.0187,0.0267,0.0306,0.04,0.0412,0.0473,0.0491,0.0497,0.0483,0.0474,0.0451,0.0469,0.0412,0.0419,0.0414,0.0409,0.0404,0.0458,0.0458,0.0459,0.0459,0,-0.0059,-0.0046,-0.0024,0.0025,0.0069,0.0123,0.019,0.0222,0.0311,0.0363,0.0421,0.0458,0.0492,0.0493,0.0509,0.0478,0.0469,0.0475,0.0473,0.042,0.0423,0.0417,0.0411,0.0461,0.046,0.046,0.046,0,-0.0081,-0.0077,-0.0048,0.0003,0.005,0.0102,0.0143,0.0209,0.0264,0.0371,0.0377,0.0434,0.0479,0.0495,0.0481,0.0489,0.0477,0.0463,0.0461,0.0459,0.0425,0.0427,0.048,0,0,0,0,0,-0.0099,-0.009,-0.0061,-0.0004,0.0044,0.0082,0.0146,0.0187,0.0267,0.0302,0.0353,0.0379,0.0427,0.0443,0.0451,0.0471,0.0465,0.0479,0.0443,0.0472,0.047,0.0427,0,0,0,0,0,0,-0.0118,-0.0095,-0.0075,-0.0014,0.0028,0.0086,0.0127,0.0179,0.0206,0.0282,0.0296,0.0364,0.0391,0.0413,0.0442,0.0451,0.0426,0.0514,0.0514,0.0474,0.0472,0.047,0.0425,0,0,0,0,0]},{"header":{"parameterUnit":"m.s-1","parameterCategory":2,"la1":30.2991,"la2":30.254,"lo1":-89.0895,"lo2":-89.0444,"dy":0.0017,"dx":0.0017,"nx":28,"ny":28,"refTime":"2025-06-16T03:00:00:Z","depth":"4","parameterNumber":3,"parameterNumberName":"V-component_of_CURRENTS"},"data":[0,0,0,0,0,0,0,0,0,0,0,0,0,0,0,0,0,0,0,0,0,0,0,0,0,0,0,0,0,0,0,0,0,0,0,0,0,0,0,0,0,0,0,0,0,0,0,0,0,0,0,0,0,0,0,0,0,0,0.0073,0.0073,0,0.0009,0.0008,0.0007,-0.0082,-0.0083,-0.0084,-0.0085,-0.0244,-0.0247,-0.025,0,0,0,0,0,0,0,0,0,0,0,0,0,0.0109,0.0109,0.0073,0.0073,0.0073,0.0009,0.0008,0.0007,-0.0082,-0.0083,-0.0084,-0.0086,-0.0243,-0.0247,-0.0251,0,0,0,0,0,0,0,0,0,0,0,0,0,0.007,0.0109,0.0073,0.0024,0.002,0.001,0.0008,0.0006,-0.0082,-0.0083,-0.0085,-0.0086,-0.0242,-0.0246,-0.0251,-0.0249,0,0,-0.0266,-0.0268,0,0,0,0,0,0,0,0,0.0072,0.0068,0.0032,0.0028,0.0023,-0.0026,-0.0037,-0.0082,-0.0081,-0.0048,-0.0085,-0.0087,-0.0176,-0.0186,-0.02,-0.0257,-0.0264,-0.0267,-0.027,-0.0272,-0.0273,0,0,0,0,0,0,0,0.0075,0.007,0.0043,0.0032,0.0026,0.0003,-0.0005,-0.0046,-0.0108,-0.0051,-0.0057,-0.0056,-0.018,-0.0195,-0.0205,-0.0266,-0.0266,-0.0271,-0.0274,-0.0276,-0.0431,-0.0432,0,0,0,0,0,0,0.0095,0.0073,0.0045,0.0042,0.0049,0.0004,-0.0005,-0.0013,-0.0105,-0.0119,-0.0054,-0.0059,-0.0186,-0.0199,-0.0211,-0.0307,-0.0272,-0.0276,-0.0279,-0.0429,-0.0431,-0.0432,0,0,0,0,0,0,0.0096,0.0093,0.0048,0.006,0.0053,0.0005,-0.0003,-0.0013,-0.0063,-0.0106,-0.0122,-0.0096,-0.0188,-0.0204,-0.0277,-0.0311,-0.0278,-0.0283,-0.0428,-0.043,-0.0432,-0.0441,0,0,0,0,0,0,0.0097,0.0093,0.0082,0.0061,0.0053,0.0018,-0.0001,-0.0013,-0.0055,-0.0064,-0.0146,-0.0161,-0.019,-0.027,-0.0282,-0.0317,-0.0287,-0.0427,-0.0429,-0.0431,-0.044,-0.0443,-0.0446,0,0,0,0,0,0.0098,0.0092,0.0082,0.0078,0.0044,0.0018,0.001,-0.0032,-0.0056,-0.0083,-0.0138,-0.016,-0.0293,-0.0275,-0.0289,-0.0326,-0.0425,-0.0428,-0.0431,-0.0438,-0.0443,-0.0446,0,0,0,0,0,0,0.0098,0.0082,0.007,0.0058,0.0031,0.0004,-0.0019,-0.0045,-0.0109,-0.0131,-0.0176,-0.0194,-0.0267,-0.0294,-0.0273,-0.0377,-0.0363,-0.0368,-0.0363,-0.0368,-0.0372,-0.0361,-0.0291,0,0,0,0,0,0.0099,0.0088,0.0067,0.0055,0.0041,0.0006,-0.0014,-0.0047,-0.0092,-0.0123,-0.0176,-0.0234,-0.0282,-0.0324,-0.0367,-0.0427,-0.0421,-0.046,-0.0464,-0.0466,-0.0468,-0.048,-0.0484,-0.0441,-0.0441,-0.0441,0,0,0.0099,0.0088,0.0081,0.0054,0.0029,0.0008,-0.0014,-0.0055,-0.0085,-0.013,-0.0202,-0.0248,-0.0298,-0.0364,-0.04,-0.0398,-0.0473,-0.047,-0.0472,-0.0472,-0.0483,-0.0487,-0.049,-0.0443,-0.0443,-0.0442,0,0,0.01,0.0078,0.0069,0.0046,0.0008,-0.0013,-0.0029,-0.0078,-0.0119,-0.0184,-0.0219,-0.0285,-0.0367,-0.0405,-0.0433,-0.0482,-0.0484,-0.0505,-0.0527,-0.0539,-0.0542,-0.0545,-0.0525,-0.0526,-0.0516,-0.0516,-0.0516,0,0.009,0.0085,0.006,0.0043,0.0025,-0.0022,-0.0043,-0.0083,-0.0154,-0.0186,-0.0216,-0.0334,-0.0382,-0.0446,-0.0471,-0.049,-0.0486,-0.0506,-0.0541,-0.0544,-0.0547,-0.0526,-0.0527,-0.0516,-0.0516,-0.0516,-0.0516,0,0.009,0.0075,0.0065,0.0032,0.0007,-0.0024,-0.0067,-0.0115,-0.017,-0.0211,-0.03,-0.0367,-0.0436,-0.0467,-0.0492,-0.0543,-0.0528,-0.0534,-0.0525,-0.0551,-0.0528,-0.0529,-0.0518,-0.0517,-0.0517,-0.0517,0,0,0.0081,0.0068,0.006,0.005,-0.0006,-0.0024,-0.0075,-0.0128,-0.0165,-0.0256,-0.0304,-0.0408,-0.0453,-0.0487,-0.053,-0.0559,-0.0575,-0.0565,-0.0565,-0.0534,-0.058,-0.0547,-0.0544,-0.0589,-0.059,-0.0591,-0.0549,0,0.0078,0.0071,0.0055,0.0029,0.0016,-0.0035,-0.0071,-0.0131,-0.0194,-0.0253,-0.0339,-0.0405,-0.0456,-0.0499,-0.0538,-0.0566,-0.0581,-0.0584,-0.0569,-0.0568,-0.0527,-0.0545,-0.0593,-0.055,-0.055,-0.055,-0.055,0,0.0071,0.0071,0.0059,0.0035,0.0021,-0.0007,-0.0071,-0.0111,-0.0197,-0.025,-0.0335,-0.0392,-0.0469,-0.0498,-0.0559,-0.0561,-0.0573,-0.0589,-0.0588,-0.0555,-0.0537,-0.0524,-0.0551,-0.0551,-0.0551,-0.0551,-0.0551,0,0.0083,0.0066,0.0062,0.005,0.0015,-0.0012,-0.0044,-0.012,-0.0154,-0.0247,-0.028,-0.038,-0.0424,-0.0474,-0.0523,-0.0544,-0.0558,-0.0581,-0.0555,-0.0551,-0.0586,-0.0584,-0.0603,-0.0603,-0.0604,-0.0604,-0.0604,0,0.0079,0.0072,0.0067,0.0062,0.0041,0.0002,-0.0039,-0.0088,-0.015,-0.0183,-0.0279,-0.0315,-0.0422,-0.045,-0.0498,-0.052,-0.0534,-0.0555,-0.0545,-0.0589,-0.0588,-0.0584,-0.0583,-0.0602,-0.0602,-0.0603,-0.0603,0,0.0077,0.0078,0.0076,0.0057,0.0045,0.0023,-0.0021,-0.0047,-0.0108,-0.0146,-0.0172,-0.026,-0.0309,-0.0377,-0.0436,-0.047,-0.0501,-0.0495,-0.0505,-0.0497,-0.0491,-0.0491,-0.0477,-0.0476,-0.0475,-0.0474,-0.0473,0,0.0074,0.0076,0.0079,0.0078,0.0063,0.0035,0.0013,-0.0037,-0.0056,-0.0108,-0.0118,-0.0172,-0.0233,-0.028,-0.0362,-0.0424,-0.044,-0.044,-0.0513,-0.049,-0.0482,-0.0483,-0.0484,-0.0471,-0.0471,-0.0471,-0.047,0,0.0063,0.0067,0.0073,0.0083,0.0069,0.0061,0.0034,0.0031,-0.0018,-0.0045,-0.0078,-0.0135,-0.0174,-0.0261,-0.0293,-0.0347,-0.0445,-0.043,-0.0434,-0.0502,-0.0483,-0.0476,-0.0478,-0.0467,-0.0467,-0.0467,-0.0468,0,0.005,0.0056,0.007,0.0075,0.0075,0.007,0.0061,0.0043,0.0022,-0.0023,-0.002,-0.0094,-0.0138,-0.0216,-0.025,-0.0298,-0.0336,-0.0365,-0.0374,-0.0379,-0.0378,-0.0341,-0.0271,0,0,0,0,0,0.0032,0.0043,0.0057,0.0062,0.0073,0.007,0.0065,0.0057,0.004,0.0026,-0.0001,-0.0043,-0.0126,-0.0171,-0.0214,-0.0244,-0.0345,-0.0296,-0.0383,-0.0445,-0.0449,-0.0465,0,0,0,0,0,0,0.0011,0.0031,0.0051,0.0053,0.006,0.0058,0.0059,0.0052,0.004,0.0023,-0.0021,-0.0047,-0.013,-0.0099,-0.0213,-0.0229,-0.0289,-0.0338,-0.0339,-0.0442,-0.0446,-0.045,-0.0468,0,0,0,0,0]}]]